• în Republica Moldova
  • Lista ţărilor
  • Pe 7 zile
  • Temperatura apei
  • Hartă satelitară
  • Meteo pe hartă
  • Widget-uri
  • user-avatar
    Intrare

    Meteo pe oră la Berat

    Astăzi, 23 Iulie, Duminică

    Timp Temperatura Precipitaţii Vânt Presiune Umiditate
    00:00 +27°C° 0 mm 1 m/s 745 mmHg 52%
    01:00 +26°C° 0 mm 1 m/s 745 mmHg 52%
    02:00 +26°C° 0 mm 1 m/s 745 mmHg 51%
    03:00 +26°C° 0 mm 2 m/s 745 mmHg 50%
    04:00 +26°C° 0 mm 2 m/s 745 mmHg 49%
    05:00 +28°C° 0 mm 1 m/s 745 mmHg 45%
    06:00 +30°C° 0 mm 1 m/s 745 mmHg 42%
    07:00 +32°C° 0 mm 1 m/s 745 mmHg 38%
    08:00 +34°C° 0 mm 2 m/s 745 mmHg 35%
    09:00 +36°C° 0 mm 2 m/s 745 mmHg 31%
    10:00 +37°C° 0 mm 2 m/s 745 mmHg 28%
    11:00 +38°C° 0 mm 3 m/s 744 mmHg 27%
    12:00 +38°C° 0 mm 3 m/s 744 mmHg 27%
    13:00 +39°C° 0 mm 3 m/s 744 mmHg 26%
    14:00 +38°C° 0 mm 3 m/s 743 mmHg 29%
    15:00 +38°C° 0 mm 3 m/s 743 mmHg 31%
    16:00 +37°C° 0 mm 3 m/s 743 mmHg 33%
    17:00 +35°C° 0 mm 3 m/s 743 mmHg 41%
    18:00 +31°C° 0 mm 2 m/s 743 mmHg 48%
    19:00 +29°C° 0 mm 1 m/s 743 mmHg 56%
    20:00 +28°C° 0 mm 1 m/s 743 mmHg 59%
    21:00 +27°C° 0 mm 1 m/s 743 mmHg 62%
    22:00 +26°C° 0 mm 1 m/s 743 mmHg 66%
    23:00 +25°C° 0 mm 1 m/s 743 mmHg 65%

    Mâine, 24 Iulie, Luni

    Timp Temperatura Precipitaţii Vânt Presiune Umiditate
    00:00 +25°C° 0 mm 1 m/s 743 mmHg 65%
    01:00 +25°C° 0 mm 1 m/s 743 mmHg 65%
    02:00 +24°C° 0 mm 1 m/s 743 mmHg 63%
    03:00 +24°C° 0 mm 1 m/s 742 mmHg 62%
    04:00 +24°C° 0 mm 1 m/s 742 mmHg 60%
    05:00 +26°C° 0 mm 1 m/s 742 mmHg 54%
    06:00 +28°C° 0 mm 1 m/s 742 mmHg 48%
    07:00 +30°C° 0 mm 1 m/s 742 mmHg 42%
    08:00 +32°C° 0 mm 1 m/s 742 mmHg 37%
    09:00 +35°C° 0 mm 2 m/s 742 mmHg 33%
    10:00 +36°C° 0 mm 2 m/s 742 mmHg 28%
    11:00 +37°C° 0 mm 3 m/s 741 mmHg 26%
    12:00 +38°C° 0 mm 3 m/s 741 mmHg 24%
    13:00 +39°C° 0 mm 3 m/s 740 mmHg 22%
    14:00 +38°C° 0 mm 3 m/s 740 mmHg 23%
    15:00 +38°C° 0 mm 3 m/s 739 mmHg 24%
    16:00 +38°C° 0 mm 3 m/s 739 mmHg 25%
    17:00 +35°C° 0 mm 2 m/s 738 mmHg 30%
    18:00 +32°C° 0 mm 2 m/s 738 mmHg 36%
    19:00 +29°C° 0 mm 2 m/s 738 mmHg 42%
    20:00 +29°C° 0 mm 2 m/s 738 mmHg 44%
    21:00 +28°C° 0 mm 3 m/s 738 mmHg 46%
    22:00 +27°C° 0 mm 3 m/s 738 mmHg 47%
    23:00 +26°C° 0 mm 3 m/s 738 mmHg 49%

    Poimâine, 25 Iulie, Marţi

    Timp Temperatura Precipitaţii Vânt Presiune Umiditate
    00:00 +26°C° 0 mm 4 m/s 737 mmHg 50%
    01:00 +25°C° 0 mm 4 m/s 737 mmHg 52%
    02:00 +25°C° 0 mm 4 m/s 737 mmHg 54%
    03:00 +23°C° 0 mm 4 m/s 737 mmHg 55%
    04:00 +24°C° 0 mm 3 m/s 737 mmHg 57%
    05:00 +25°C° 0 mm 3 m/s 737 mmHg 58%
    06:00 +26°C° 0 mm 3 m/s 737 mmHg 58%
    07:00 +28°C° 0 mm 3 m/s 737 mmHg 58%
    08:00 +29°C° 0 mm 3 m/s 736 mmHg 52%
    09:00 +30°C° 0 mm 4 m/s 736 mmHg 46%
    10:00 +33°C° 0 mm 5 m/s 736 mmHg 40%
    11:00 +33°C° 0 mm 5 m/s 736 mmHg 38%
    12:00 +33°C° 0 mm 5 m/s 736 mmHg 36%
    13:00 +34°C° 0 mm 6 m/s 736 mmHg 34%
    14:00 +33°C° 0 mm 5 m/s 736 mmHg 35%
    15:00 +33°C° 0 mm 5 m/s 736 mmHg 36%
    16:00 +32°C° 0 mm 5 m/s 736 mmHg 38%
    17:00 +29°C° 0 mm 4 m/s 736 mmHg 44%
    18:00 +28°C° 0 mm 4 m/s 736 mmHg 50%
    19:00 +26°C° 0 mm 3 m/s 736 mmHg 56%
    20:00 +25°C° 0 mm 3 m/s 736 mmHg 59%
    21:00 +24°C° 0 mm 3 m/s 736 mmHg 61%
    22:00 +22°C° 0 mm 3 m/s 736 mmHg 64%
    23:00 +22°C° 0 mm 3 m/s 736 mmHg 66%

    26 Iulie, Miercuri

    Timp Temperatura Precipitaţii Vânt Presiune Umiditate
    00:00 +21°C° 0 mm 3 m/s 736 mmHg 67%
    01:00 +21°C° 0 mm 2 m/s 736 mmHg 68%
    02:00 +20°C° 0 mm 2 m/s 736 mmHg 70%
    03:00 +20°C° 0 mm 2 m/s 736 mmHg 71%
    04:00 +20°C° 0 mm 2 m/s 736 mmHg 72%
    05:00 +23°C° 0 mm 2 m/s 736 mmHg 69%
    06:00 +24°C° 0 mm 3 m/s 736 mmHg 65%
    07:00 +26°C° 0 mm 3 m/s 736 mmHg 62%
    08:00 +27°C° 0 mm 3 m/s 736 mmHg 57%
    09:00 +29°C° 0 mm 3 m/s 736 mmHg 52%
    10:00 +30°C° 0 mm 4 m/s 737 mmHg 48%
    11:00 +30°C° 0 mm 4 m/s 736 mmHg 46%
    12:00 +30°C° 0 mm 4 m/s 736 mmHg 45%
    13:00 +32°C° 0 mm 4 m/s 736 mmHg 43%
    14:00 +32°C° 0 mm 4 m/s 736 mmHg 44%
    15:00 +30°C° 0 mm 4 m/s 736 mmHg 44%
    16:00 +30°C° 0 mm 4 m/s 736 mmHg 45%
    17:00 +28°C° 0 mm 3 m/s 736 mmHg 52%
    18:00 +26°C° 0 mm 3 m/s 737 mmHg 59%
    19:00 +25°C° 0 mm 2 m/s 737 mmHg 66%
    20:00 +24°C° 0 mm 2 m/s 737 mmHg 70%
    21:00 +23°C° 0 mm 2 m/s 737 mmHg 75%
    22:00 +21°C° 0 mm 2 m/s 738 mmHg 80%
    23:00 +21°C° 0 mm 2 m/s 738 mmHg 81%

    27 Iulie, Joi

    Timp Temperatura Precipitaţii Vânt Presiune Umiditate
    00:00 +20°C° 0 mm 2 m/s 738 mmHg 83%
    01:00 +20°C° 0 mm 2 m/s 738 mmHg 84%
    02:00 +20°C° 0,1 mm 2 m/s 738 mmHg 85%
    03:00 +19°C° 0,1 mm 3 m/s 738 mmHg 87%
    04:00 +19°C° 0,1 mm 3 m/s 738 mmHg 88%
    05:00 +21°C° 0 mm 3 m/s 738 mmHg 80%
    06:00 +22°C° 0 mm 3 m/s 738 mmHg 73%
    07:00 +25°C° 0 mm 3 m/s 739 mmHg 65%
    08:00 +26°C° 0,1 mm 2 m/s 739 mmHg 58%
    09:00 +28°C° 0,1 mm 2 m/s 739 mmHg 51%
    10:00 +30°C° 0,1 mm 2 m/s 739 mmHg 43%
    11:00 +30°C° 0,1 mm 3 m/s 739 mmHg 42%
    12:00 +30°C° 0,1 mm 3 m/s 739 mmHg 41%
    13:00 +30°C° 0,1 mm 3 m/s 739 mmHg 40%
    14:00 +30°C° 0,5 mm 3 m/s 739 mmHg 44%
    15:00 +29°C° 0,5 mm 3 m/s 739 mmHg 48%
    16:00 +28°C° 0,5 mm 3 m/s 739 mmHg 52%
    17:00 +27°C° 1,1 mm 3 m/s 739 mmHg 59%
    18:00 +26°C° 1,1 mm 2 m/s 740 mmHg 66%
    19:00 +24°C° 1,1 mm 1 m/s 740 mmHg 72%
    20:00 +23°C° 0,8 mm 1 m/s 740 mmHg 76%
    21:00 +23°C° 0,8 mm 1 m/s 741 mmHg 79%
    22:00 +21°C° 0,8 mm 2 m/s 741 mmHg 82%
    23:00 +22°C° 0,1 mm 1 m/s 741 mmHg 82%

    28 Iulie, Vineri

    Timp Temperatura Precipitaţii Vânt Presiune Umiditate
    00:00 +22°C° 0,1 mm 1 m/s 741 mmHg 82%
    01:00 +21°C° 0,1 mm 1 m/s 741 mmHg 81%
    02:00 +21°C° 0 mm 1 m/s 741 mmHg 81%
    03:00 +21°C° 0 mm 1 m/s 741 mmHg 81%
    04:00 +20°C° 0 mm 1 m/s 741 mmHg 81%
    05:00 +22°C° 0 mm 1 m/s 741 mmHg 76%
    06:00 +23°C° 0 mm 1 m/s 742 mmHg 71%
    07:00 +24°C° 0 mm 1 m/s 742 mmHg 66%
    08:00 +26°C° 0 mm 1 m/s 742 mmHg 59%
    09:00 +28°C° 0 mm 1 m/s 742 mmHg 52%
    10:00 +30°C° 0 mm 2 m/s 742 mmHg 45%
    11:00 +30°C° 0,1 mm 2 m/s 742 mmHg 43%
    12:00 +31°C° 0,1 mm 3 m/s 742 mmHg 42%
    13:00 +32°C° 0,1 mm 4 m/s 742 mmHg 40%
    14:00 +32°C° 0,1 mm 4 m/s 742 mmHg 42%
    15:00 +32°C° 0,1 mm 4 m/s 742 mmHg 44%
    16:00 +30°C° 0,1 mm 5 m/s 742 mmHg 46%
    17:00 +28°C° 0,1 mm 4 m/s 742 mmHg 53%
    18:00 +27°C° 0,1 mm 3 m/s 743 mmHg 60%
    19:00 +25°C° 0,1 mm 3 m/s 743 mmHg 66%
    20:00 +24°C° 0 mm 2 m/s 743 mmHg 70%
    21:00 +23°C° 0 mm 2 m/s 744 mmHg 73%
    22:00 +22°C° 0 mm 1 m/s 744 mmHg 77%
    23:00 +22°C° 0 mm 1 m/s 744 mmHg 76%
    Arată mai mult